Погода в Томузловском

Россия / Ставропольский край     44°41′47″N   43°51′40″E
темп.,
°C
ветер,
м/с
пор.,
м/с
влажн.,
%
обл.,
%
осадки,
мм/ч
давл.,
гПа
погр.,
м
11 апреля, вс
вс1100:00+6зсз3583100 0.0 1020282
03:00+6зюз1284100 0.0 1020133
06:00+7зсз2384100 0.0 1020189
09:00+9с217693 0.0 1019423
12:00+14всв346053 0.0 10181071
15:00+16вюв4655100 0.0 10161547
18:00+13вюв3564100 0.0 1016165
21:00+10зюз116999 0.0 101710
12 апреля, пн
пн1200:00+10сз227194 0.0 101636
03:00+9сз4580100 0.0 101684
06:00+9зсз4986100 0.0 1018241
09:00+11сз6781100 0.8 1019584
12:00+13сз5573100 0.1 1020934
15:00+13зсз6676100 0.2 1020683
18:00+10зсз5882100 0.0 1022390
21:00+10зсз4683100 0.0 1022325
13 апреля, вт
вт1300:00+9сз3587100 0.0 1022237
03:00+9сз3591100 0.1 1022174
06:00+9сз249285 0.0 1022146
09:00+11сз338197 0.0 1022443
12:00+16с336198 0.0 10211106
15:00+15св1264100 0.1 1020373
18:00+13ссз4575100 0.0 1020169
21:00+12ссз358176 0.0 1020167
14 апреля, ср
ср1400:00+9св3680100 0.0 1018138
03:00+8св2267100 0.0 101627
06:00+8з0167100 0.0 101710
09:00+12зсз2254100 0.0 1016442
12:00+16сз444794 0.0 10161149
15:00+14зюз676880 0.1 1016525
18:00+11з71182100 0.0 1016313
21:00+11зсз4981100 0.0 1017297
15 апреля, чт
чт1500:00+10зсз378268 0.0 1016222
03:00+8зсз3387100 0.0 101761
06:00+8зсз238769 0.0 101763
09:00+14з22647 0.0 1016511
12:00+18зсз114827 0.0 10151190
15:00+20св11420 0.0 10131440
18:00+18в11520 0.0 101411
21:00+14сз005855 0.0 101410